sat.trackr.live / text

‹ back to catalog

STARLINK-30958

NORAD 58457 · 2023-183W

PAYLOAD ACTIVE UNKNOWN

§ Identity

Operator
Country
US
Launch date
2023-11-28
Launch site
AFETR
Launch vehicle
Mass (kg)
RCS (m²)

Purposes: comms

External: N2YO · Heavens-Above · Gunter

§ Orbital elements

Epoch: 2026-09-20T18:32:33.653472Z

Period
94.27 min
Inclination
43.0038°
Eccentricity
0.0001034
Mean motion
15.27580135 rev/d
Perigee alt
482.3 km
Apogee alt
483.8 km
Semi-major
6,861.2 km
B*
2.0032e-5
RAAN
19.5603°
Arg perigee
274.3266°
Mean anomaly
85.7468°
Rev number
15,657

§ Raw data

STARLINK-309581 58457U 23183W   26263.77261173  .00000289  00000+0  20032-4 0  99982 58457  43.0038  19.5603 0001034 274.3266  85.7468 15.27580135156570

JSON: /api/v1/satellites/58457 · /tle

For live sub-satellite position, see the globe view (requires WebGL).

§ Visibility from observer

Set your observer location to see the next 7 days of passes ≥ 10°. The values pass through the URL so the page stays shareable.

No JS? Fill the form by hand. The geolocation button needs JavaScript.